Powrót do katalogu

METEOR 2-5 DEB

AktywnyPO
NORAD 35506·DEBRIS·🇷🇺 Russia

Wystrzelony Oct 31, 1979 z Plesetsk Cosmodrome

Loading…

Następne Przeloty (najbliższe 24 godziny)

TLE

ŚwieżeSource: Space-Track

Epoka: Sep 11, 2026, 08:59 UTC

1 35506U 79095Z   26254.37450405  .00013945  00000-0  20265-2 0  9995
2 35506  81.1807 280.5234 0011132  97.0250 263.2224 14.75837511302324

Śledź METEOR 2-5 DEB w czasie rzeczywistym z AllMySat

Download on the App Store